FW0153 Weather Reports


time (UTC)temp
F
wind
direction
speed
knots
gust
knots
rain 1hr
in
rain 24hr
in
rain mn
in
humidity
%
barometer
mb
20260904052212 80 41 7.8 0.0 0.00 0.00 0.00 79 1010.6
20260904051505 80 165 0.0 0.0 0.00 0.00 0.00 79 1010.6
20260904051006 80 129 0.0 0.0 0.00 0.00 0.00 79 1010.3
20260904050713 80 70 15.6 0.0 0.00 0.00 0.00 79 1010.6
20260904045505 80 222 15.6 0.0 0.00 0.00 0.00 78 1010.6
20260904045005 80 136 7.8 0.0 0.00 0.00 0.00 78 1010.6
20260904044505 80 82 7.8 0.0 0.00 0.00 0.00 78 1010.6
20260904044005 80 57 3.5 0.0 0.00 0.00 0.00 78 1010.6
20260904043713 80 53 7.8 0.0 0.00 0.00 0.00 78 1010.6
20260904043004 80 62 11.3 0.0 0.00 0.00 0.00 78 1010.3
20260904042505 81 76 11.3 0.0 0.00 0.00 0.00 77 1010.3
20260904042005 81 85 11.3 0.0 0.00 0.00 0.00 77 1010.6
20260904041505 81 166 3.5 0.0 0.00 0.00 0.00 77 1010.3
20260904041212 81 108 11.3 0.0 0.00 0.00 0.00 76 1010.3
20260904040505 81 151 7.8 0.0 0.00 0.00 0.00 76 1010.3
20260904040005 81 92 7.8 0.0 0.00 0.00 0.00 76 1010.3
20260904035505 81 85 11.3 0.0 0.00 0.00 0.00 76 1010.3
20260904035005 81 75 7.8 0.0 0.00 0.00 0.00 75 1010.3
20260904034504 81 179 7.8 0.0 0.00 0.00 0.00 75 1010.3
20260904034005 81 121 7.8 0.0 0.00 0.00 0.00 74 1010.3
20260904033505 81 38 11.3 0.0 0.00 0.00 0.00 74 1010.3
20260904033212 81 8 11.3 0.0 0.00 0.00 0.00 74 1009.9
20260904032713 81 89 7.8 0.0 0.00 0.00 0.00 73 1009.9
20260904032005 81 44 15.6 0.0 0.00 0.00 0.00 73 1009.6
20260904031713 81 89 7.8 0.0 0.00 0.00 0.00 73 1009.9
20260904031212 81 240 7.8 0.0 0.00 0.00 0.00 72 1009.6
20260904030713 81 61 7.8 0.0 0.00 0.00 0.00 72 1009.6
20260904030005 82 70 15.6 0.0 0.00 0.00 0.00 72 1009.6
20260904025505 82 83 3.5 0.0 0.00 0.00 0.00 72 1009.6
20260904025005 82 34 11.3 0.0 0.00 0.00 0.00 72 1009.6
20260904024505 82 92 15.6 0.0 0.00 0.00 0.00 71 1009.6
20260904024005 82 132 7.8 0.0 0.00 0.00 0.00 71 1009.6
20260904023505 82 153 3.5 0.0 0.00 0.00 0.00 71 1009.6
20260904023005 82 64 15.6 0.0 0.00 0.00 0.00 71 1009.6
20260904022505 82 76 11.3 0.0 0.00 0.00 0.00 70 1009.6
20260904022005 82 124 15.6 0.0 0.00 0.00 0.00 70 1009.3
20260904021505 82 67 27.8 0.0 0.00 0.00 0.00 70 1009.3
20260904021211 82 9 11.3 0.0 0.00 0.00 0.00 69 1009.3
20260904020505 83 58 7.8 0.0 0.00 0.00 0.00 69 1008.9
20260904020005 83 114 11.3 0.0 0.00 0.00 0.00 69 1009.3
20260904015712 83 126 7.8 0.0 0.00 0.00 0.00 69 1009.3
20260904015005 83 112 7.8 0.0 0.00 0.00 0.00 68 1008.9
20260904014505 83 126 3.5 0.0 0.00 0.00 0.00 67 1008.9
20260904014005 83 95 0.0 0.0 0.00 0.00 0.00 66 1008.6
20260904013505 83 62 20.0 0.0 0.00 0.00 0.00 66 1008.6
20260904013005 83 98 7.8 0.0 0.00 0.00 0.00 66 1008.6
20260904012504 83 116 7.8 0.0 0.00 0.00 0.00 66 1008.6
20260904012005 83 86 15.6 0.0 0.00 0.00 0.00 65 1008.6
20260904011505 83 141 3.5 0.0 0.00 0.00 0.00 64 1008.6
20260904011005 84 75 7.8 0.0 0.00 0.00 0.00 63 1008.2
20260904010504 84 12 0.0 0.0 0.00 0.00 0.00 63 1008.6
20260904010005 84 190 7.8 0.0 0.00 0.00 0.00 62 1007.9
20260904005505 85 27 11.3 0.0 0.00 0.00 0.00 61 1008.2
20260904005005 85 53 23.5 0.0 0.00 0.00 0.00 60 1007.9
20260904004505 85 84 3.5 0.0 0.00 0.00 0.00 58 1008.2
20260904004005 85 53 23.5 0.0 0.00 0.00 0.00 57 1007.9
20260904003505 86 82 11.3 0.0 0.00 0.00 0.00 57 1008.2
20260904003004 86 66 11.3 0.0 0.00 0.00 0.00 57 1008.2
20260904002505 86 161 7.8 0.0 0.00 0.00 0.00 56 1007.9
20260904002005 86 63 7.8 0.0 0.00 0.00 0.00 55 1007.9
20260904001505 86 60 11.3 0.0 0.00 0.00 0.00 54 1007.9
20260904001005 86 104 15.6 0.0 0.00 0.00 0.00 53 1007.9
20260904000505 87 152 11.3 0.0 0.00 0.00 0.00 53 1007.9
20260904000005 87 86 7.8 0.0 0.00 0.00 0.00 52 1007.9
20260903235711 87 52 7.8 0.0 0.00 0.00 0.00 51 1007.6
20260903235005 88 90 15.6 0.0 0.00 0.00 0.00 51 1007.6
20260903234711 88 110 3.5 0.0 0.00 0.00 0.00 50 1007.9
20260903234005 88 331 11.3 0.0 0.00 0.00 0.00 50 1007.6
20260903233505 89 70 20.0 0.0 0.00 0.00 0.00 50 1007.2
20260903233005 89 110 7.8 0.0 0.00 0.00 0.00 49 1007.6
20260903232505 89 176 15.6 0.0 0.00 0.00 0.00 48 1007.2
20260903232004 89 66 20.0 0.0 0.00 0.00 0.00 46 1007.6
20260903231505 90 82 23.5 0.0 0.00 0.00 0.00 45 1007.2
20260903231005 90 8 20.0 0.0 0.00 0.00 0.00 44 1007.2
20260903230505 90 178 11.3 0.0 0.00 0.00 0.00 43 1006.9
20260903230005 91 17 11.3 0.0 0.00 0.00 0.00 42 1007.2
20260903225505 92 109 11.3 0.0 0.00 0.00 0.00 42 1006.9
20260903225005 92 160 3.5 0.0 0.00 0.00 0.00 42 1006.9
20260903224504 92 129 7.8 0.0 0.00 0.00 0.00 42 1006.9
20260903224005 92 118 11.3 0.0 0.00 0.00 0.00 42 1006.9
20260903223505 92 193 7.8 0.0 0.00 0.00 0.00 41 1006.5
20260903223212 92 162 7.8 0.0 0.00 0.00 0.00 42 1006.5
20260903222505 93 132 20.0 0.0 0.00 0.00 0.00 40 1006.5
20260903222212 93 193 11.3 0.0 0.00 0.00 0.00 41 1006.5
20260903221505 92 64 20.0 0.0 0.00 0.00 0.00 42 1006.9
20260903221005 92 70 11.3 0.0 0.00 0.00 0.00 41 1006.5
20260903220505 93 331 20.0 0.0 0.00 0.00 0.00 41 1006.5
20260903220005 93 25 15.6 0.0 0.00 0.00 0.00 41 1006.5
20260903215713 94 85 11.3 0.0 0.00 0.00 0.00 39 1006.5
20260903215005 94 132 3.5 0.0 0.00 0.00 0.00 38 1006.2
20260903214505 92 182 11.3 0.0 0.00 0.00 0.00 40 1006.5
20260903214005 93 43 11.3 0.0 0.00 0.00 0.00 41 1006.5
20260903213504 93 69 11.3 0.0 0.00 0.00 0.00 40 1006.5
20260903213214 93 38 11.3 0.0 0.00 0.00 0.00 39 1006.5
20260903212504 95 166 20.0 0.0 0.00 0.00 0.00 37 1006.5
20260903212005 95 125 11.3 0.0 0.00 0.00 0.00 36 1006.5
20260903211505 95 354 11.3 0.0 0.00 0.00 0.00 36 1006.5
20260903211005 95 79 3.5 0.0 0.00 0.00 0.00 36 1006.9
20260903210505 95 37 7.8 0.0 0.00 0.00 0.00 36 1006.5
20260903210211 95 66 7.8 0.0 0.00 0.00 0.00 36 1006.9
20260903205505 95 40 3.5 0.0 0.00 0.00 0.00 36 1006.9
20260903205211 95 121 3.5 0.0 0.00 0.00 0.00 37 1006.9
20260903204505 95 160 7.8 0.0 0.00 0.00 0.00 37 1006.9
20260903204005 94 133 0.0 0.0 0.00 0.00 0.00 38 1007.2
20260903203505 95 56 15.6 0.0 0.00 0.00 0.00 37 1006.9
20260903203005 95 73 3.5 0.0 0.00 0.00 0.00 39 1006.9
20260903202505 95 142 15.6 0.0 0.00 0.00 0.00 39 1007.2
20260903202005 95 165 11.3 0.0 0.00 0.00 0.00 39 1007.2
20260903201505 95 83 3.5 0.0 0.00 0.00 0.00 39 1007.2
20260903201004 95 124 7.8 0.0 0.00 0.00 0.00 38 1007.2
20260903200505 95 71 11.3 0.0 0.00 0.00 0.00 41 1007.6
20260903200005 95 33 7.8 0.0 0.00 0.00 0.00 41 1007.6
20260903195505 95 64 11.3 0.0 0.00 0.00 0.00 40 1007.6
20260903195005 93 37 7.8 0.0 0.00 0.00 0.00 41 1007.6
20260903194505 94 8 15.6 0.0 0.00 0.00 0.00 42 1007.6
20260903194005 95 56 15.6 0.0 0.00 0.00 0.00 41 1007.9
20260903193505 95 72 7.8 0.0 0.00 0.00 0.00 41 1007.9
20260903193004 95 353 20.0 0.0 0.00 0.00 0.00 42 1007.9
20260903192505 95 359 7.8 0.0 0.00 0.00 0.00 42 1007.9
20260903192213 94 25 7.8 0.0 0.00 0.00 0.00 42 1007.9
20260903191505 94 172 3.5 0.0 0.00 0.00 0.00 42 1008.2
20260903191005 94 57 20.0 0.0 0.00 0.00 0.00 42 1008.2
20260903190505 95 108 11.3 0.0 0.00 0.00 0.00 41 1008.2
20260903190005 94 85 3.5 0.0 0.00 0.00 0.00 40 1008.2
20260903185505 94 119 11.3 0.0 0.00 0.00 0.00 41 1008.6
20260903185005 93 179 3.5 0.0 0.00 0.00 0.00 42 1008.6
20260903184711 92 309 11.3 0.0 0.00 0.00 0.00 44 1008.9
20260903184005 93 9 7.8 0.0 0.00 0.00 0.00 43 1008.6
20260903183505 93 161 11.3 0.0 0.00 0.00 0.00 41 1008.9
20260903183005 93 164 7.8 0.0 0.00 0.00 0.00 41 1008.9
20260903182505 93 150 11.3 0.0 0.00 0.00 0.00 43 1009.3
20260903182005 92 162 15.6 0.0 0.00 0.00 0.00 43 1008.9
20260903181711 92 48 7.8 0.0 0.00 0.00 0.00 43 1009.3
20260903181005 92 218 15.6 0.0 0.00 0.00 0.00 43 1009.3
20260903180711 92 138 7.8 0.0 0.00 0.00 0.00 43 1009.3
20260903180005 92 89 11.3 0.0 0.00 0.00 0.00 43 1009.3
20260903175505 92 157 11.3 0.0 0.00 0.00 0.00 44 1009.9
20260903175005 92 150 27.8 0.0 0.00 0.00 0.00 44 1009.6
20260903174505 91 39 3.5 0.0 0.00 0.00 0.00 46 1009.6
20260903174212 92 193 11.3 0.0 0.00 0.00 0.00 44 1009.6
20260903173505 91 167 20.0 0.0 0.00 0.00 0.00 46 1009.9
20260903173005 90 111 3.5 0.0 0.00 0.00 0.00 47 1009.9
20260903172711 90 101 11.3 0.0 0.00 0.00 0.00 49 1009.9
20260903172005 90 198 7.8 0.0 0.00 0.00 0.00 47 1010.3
20260903171505 91 126 3.5 0.0 0.00 0.00 0.00 46 1009.9
20260903171005 89 161 11.3 0.0 0.00 0.00 0.00 48 1010.3
20260903170505 90 237 20.0 0.0 0.00 0.00 0.00 47 1010.6
20260903170005 89 188 32.2 0.0 0.00 0.00 0.00 47 1010.6
20260903165505 89 182 11.3 0.0 0.00 0.00 0.00 50 1010.6
20260903165004 89 106 7.8 0.0 0.00 0.00 0.00 50 1010.6
20260903164505 89 111 20.0 0.0 0.00 0.00 0.00 49 1011.0
20260903164212 90 145 11.3 0.0 0.00 0.00 0.00 49 1010.6
20260903163505 89 57 7.8 0.0 0.00 0.00 0.00 50 1010.6
20260903163005 88 51 11.3 0.0 0.00 0.00 0.00 51 1011.0
20260903162504 89 164 23.5 0.0 0.00 0.00 0.00 52 1010.6
20260903162005 89 214 7.8 0.0 0.00 0.00 0.00 51 1011.0
20260903161713 88 272 3.5 0.0 0.00 0.00 0.00 52 1010.6
20260903161005 88 59 7.8 0.0 0.00 0.00 0.00 54 1011.0
20260903160505 88 176 15.6 0.0 0.00 0.00 0.00 53 1011.0
20260903160005 87 154 11.3 0.0 0.00 0.00 0.00 56 1010.6
20260903155505 87 145 7.8 0.0 0.00 0.00 0.00 56 1010.6
20260903155005 86 93 11.3 0.0 0.00 0.00 0.00 58 1010.6
20260903154505 86 76 20.0 0.0 0.00 0.00 0.00 57 1010.6
20260903154004 86 148 11.3 0.0 0.00 0.00 0.00 58 1010.6
20260903153505 86 104 15.6 0.0 0.00 0.00 0.00 59 1010.6
20260903153005 86 66 11.3 0.0 0.00 0.00 0.00 59 1010.6
20260903152505 86 148 7.8 0.0 0.00 0.00 0.00 59 1010.6
20260903152005 86 118 7.8 0.0 0.00 0.00 0.00 61 1011.0
20260903151505 86 138 11.3 0.0 0.00 0.00 0.00 62 1011.0
20260903151213 85 260 11.3 0.0 0.00 0.00 0.00 62 1011.3
20260903150505 85 146 11.3 0.0 0.00 0.00 0.00 63 1011.3
20260903150005 84 85 11.3 0.0 0.00 0.00 0.00 64 1011.0
20260903145505 84 114 11.3 0.0 0.00 0.00 0.00 66 1011.0
20260903145005 84 213 11.3 0.0 0.00 0.00 0.00 66 1011.0
20260903144505 84 226 7.8 0.0 0.00 0.00 0.00 67 1011.3
20260903144005 84 60 11.3 0.0 0.00 0.00 0.00 68 1011.0
20260903143712 83 170 3.5 0.0 0.00 0.00 0.00 69 1011.0
20260903143005 83 97 11.3 0.0 0.00 0.00 0.00 71 1011.0
20260903142505 83 50 7.8 0.0 0.00 0.00 0.00 72 1011.0
20260903142005 83 121 7.8 0.0 0.00 0.00 0.00 72 1011.3
20260903141504 82 4 11.3 0.0 0.00 0.00 0.00 74 1011.3
20260903141005 82 176 11.3 0.0 0.00 0.00 0.00 75 1011.0
20260903140712 82 341 7.8 0.0 0.00 0.00 0.00 75 1011.3
20260903140005 82 65 15.6 0.0 0.00 0.00 0.00 75 1011.3
20260903135505 81 252 3.5 0.0 0.00 0.00 0.00 78 1011.3
20260903135005 81 104 0.0 0.0 0.00 0.00 0.00 78 1011.3
20260903134505 80 65 3.5 0.0 0.00 0.00 0.00 80 1011.3
20260903134005 80 132 3.5 0.0 0.00 0.00 0.00 81 1011.3
20260903133504 80 82 3.5 0.0 0.00 0.00 0.00 81 1011.3
20260903133005 80 136 7.8 0.0 0.00 0.00 0.00 81 1011.3
20260903132505 80 123 3.5 0.0 0.00 0.00 0.00 82 1011.0
20260903132005 79 67 3.5 0.0 0.00 0.00 0.00 83 1011.0
20260903131505 79 8 11.3 0.0 0.00 0.00 0.00 83 1011.0
20260903131005 79 96 3.5 0.0 0.00 0.00 0.00 83 1011.0
20260903130505 79 122 0.0 0.0 0.00 0.00 0.00 83 1011.0
20260903130005 78 189 3.5 0.0 0.00 0.00 0.00 84 1011.0
20260903125505 78 61 7.8 0.0 0.00 0.00 0.00 84 1010.6
20260903125005 78 61 11.3 0.0 0.00 0.00 0.00 84 1010.6
20260903124711 78 126 3.5 0.0 0.00 0.00 0.00 84 1011.0
20260903124005 78 178 3.5 0.0 0.00 0.00 0.00 84 1010.6
20260903123505 78 125 3.5 0.0 0.00 0.00 0.00 84 1010.6
20260903123005 78 108 3.5 0.0 0.00 0.00 0.00 84 1011.0
20260903122713 78 118 3.5 0.0 0.00 0.00 0.00 84 1010.6
20260903122005 78 123 3.5 0.0 0.00 0.00 0.00 84 1010.6
20260903121504 78 133 0.0 0.0 0.00 0.00 0.00 84 1010.6
20260903121005 78 63 3.5 0.0 0.00 0.00 0.00 84 1010.6
20260903120505 78 115 7.8 0.0 0.00 0.00 0.00 84 1010.6
20260903120005 78 109 11.3 0.0 0.00 0.00 0.00 84 1011.0
20260903115505 78 53 0.0 0.0 0.00 0.00 0.00 84 1010.6
20260903115005 78 100 0.0 0.0 0.00 0.00 0.00 84 1010.6
20260903114505 78 103 0.0 0.0 0.00 0.00 0.00 84 1010.6
20260903114005 78 152 3.5 0.0 0.00 0.00 0.00 83 1010.6
20260903113505 78 141 3.5 0.0 0.00 0.00 0.00 83 1010.6
20260903113005 79 140 0.0 0.0 0.00 0.00 0.00 83 1010.6
20260903112504 79 87 3.5 0.0 0.00 0.00 0.00 83 1011.0
20260903112005 79 152 7.8 0.0 0.00 0.00 0.00 83 1010.6
20260903111505 79 97 7.8 0.0 0.00 0.00 0.00 83 1010.6
20260903111005 79 90 7.8 0.0 0.00 0.00 0.00 83 1010.6
20260903110505 79 160 3.5 0.0 0.00 0.00 0.00 83 1010.3
20260903110005 79 131 7.8 0.0 0.00 0.00 0.00 83 1010.6
20260903105505 79 82 3.5 0.0 0.00 0.00 0.00 83 1010.6
20260903105005 79 145 3.5 0.0 0.00 0.00 0.00 83 1010.6
20260903104505 79 122 3.5 0.0 0.00 0.00 0.00 83 1010.6
20260903104005 79 142 3.5 0.0 0.00 0.00 0.00 83 1010.6
20260903103505 79 159 3.5 0.0 0.00 0.00 0.00 83 1010.6
20260903103005 79 121 0.0 0.0 0.00 0.00 0.00 83 1010.3
20260903102713 79 142 7.8 0.0 0.00 0.00 0.00 83 1010.6
20260903102005 79 168 0.0 0.0 0.00 0.00 0.00 83 1010.6
20260903101505 79 91 11.3 0.0 0.00 0.00 0.00 83 1010.6
20260903101005 79 173 15.6 0.0 0.00 0.00 0.00 83 1010.3
20260903100505 79 150 0.0 0.0 0.00 0.00 0.00 83 1010.6
20260903100005 79 159 7.8 0.0 0.00 0.00 0.00 83 1010.6
20260903095505 79 166 7.8 0.0 0.00 0.00 0.00 83 1010.6
20260903095213 79 180 7.8 0.0 0.00 0.00 0.00 83 1011.0
20260903094712 79 62 3.5 0.0 0.00 0.00 0.00 82 1010.6
20260903094005 80 156 11.3 0.0 0.00 0.00 0.00 82 1010.6
20260903093504 80 158 20.0 0.0 0.00 0.00 0.00 82 1010.6
20260903093005 80 186 20.0 0.0 0.00 0.00 0.00 82 1010.6
20260903092505 80 162 7.8 0.0 0.00 0.00 0.00 82 1011.0
20260903092005 80 141 3.5 0.0 0.00 0.00 0.00 82 1010.6
20260903091505 80 160 7.8 0.0 0.00 0.00 0.00 82 1010.6
20260903091213 80 159 20.0 0.0 0.00 0.00 0.00 82 1011.0
20260903090505 80 26 3.5 0.0 0.00 0.00 0.00 82 1011.0
20260903090005 80 160 15.6 0.0 0.00 0.00 0.00 81 1011.0
20260903085505 80 70 11.3 0.0 0.00 0.00 0.00 81 1011.0
20260903085005 80 127 15.6 0.0 0.00 0.00 0.00 81 1011.0
20260903084712 80 207 15.6 0.0 0.00 0.00 0.00 81 1011.0
20260903084005 80 62 11.3 0.0 0.00 0.00 0.00 81 1011.0
20260903083505 80 152 15.6 0.0 0.00 0.00 0.00 81 1011.0
20260903083005 80 163 15.6 0.0 0.00 0.00 0.00 81 1011.0
20260903082504 80 148 11.3 0.0 0.00 0.00 0.00 80 1011.3
20260903082213 80 153 7.8 0.0 0.00 0.00 0.00 80 1011.0
20260903081505 80 170 47.8 0.0 0.00 0.00 0.00 80 1011.0
20260903081004 80 152 15.6 0.0 0.00 0.00 0.00 80 1011.3
20260903080505 80 59 7.8 0.0 0.00 0.00 0.00 80 1011.3
20260903080005 80 150 7.8 0.0 0.00 0.00 0.00 80 1011.3
20260903075505 80 139 11.3 0.0 0.00 0.00 0.00 80 1011.3
20260903075005 80 147 11.3 0.0 0.00 0.00 0.00 79 1011.3
20260903074505 80 179 7.8 0.0 0.00 0.00 0.00 79 1011.3
20260903074005 80 167 3.5 0.0 0.00 0.00 0.00 79 1011.3
20260903073505 80 141 3.5 0.0 0.00 0.00 0.00 79 1011.3
20260903073005 80 52 3.5 0.0 0.00 0.00 0.00 79 1011.3
20260903072711 80 164 15.6 0.0 0.00 0.00 0.00 79 1011.6
20260903072005 80 119 7.8 0.0 0.00 0.00 0.00 79 1011.3
20260903071505 80 150 11.3 0.0 0.00 0.00 0.00 79 1011.3
20260903071005 80 9 7.8 0.0 0.00 0.00 0.00 79 1011.0
20260903070505 80 62 3.5 0.0 0.00 0.00 0.00 80 1011.0
20260903070005 80 100 3.5 0.0 0.00 0.00 0.00 80 1011.3
20260903065505 80 123 3.5 0.0 0.00 0.00 0.00 80 1011.6
20260903065004 80 77 7.8 0.0 0.00 0.00 0.00 79 1011.3
20260903064505 80 82 11.3 0.0 0.00 0.00 0.00 79 1011.6
20260903064005 80 100 7.8 0.0 0.00 0.00 0.00 79 1011.3
20260903063505 80 160 11.3 0.0 0.00 0.00 0.00 79 1011.6
20260903063005 80 29 11.3 0.0 0.00 0.00 0.00 79 1011.3
20260903062713 80 61 3.5 0.0 0.00 0.00 0.00 78 1011.3
20260903062005 80 106 15.6 0.0 0.00 0.00 0.00 78 1011.3
20260903061713 80 149 7.8 0.0 0.00 0.00 0.00 78 1011.3
20260903061005 80 187 7.8 0.0 0.00 0.00 0.00 78 1011.3
20260903060505 80 143 11.3 0.0 0.00 0.00 0.00 77 1011.3
20260903060005 80 182 7.8 0.0 0.00 0.00 0.00 77 1011.6
20260903055505 80 23 11.3 0.0 0.00 0.00 0.00 77 1011.3
20260903055004 80 61 7.8 0.0 0.00 0.00 0.00 77 1011.6
20260903054505 80 139 7.8 0.0 0.00 0.00 0.00 77 1011.6
20260903054212 80 133 15.6 0.0 0.00 0.00 0.00 77 1011.6
20260903053505 80 274 11.3 0.0 0.00 0.00 0.00 77 1011.6
20260903053005 80 89 7.8 0.0 0.00 0.00 0.00 77 1011.6